Retour au catalogue

STARLINK-4572

ActifCommunicationsSSO
NORAD 53692·PAYLOAD·🇺🇸 United States

Lancé Aug 31, 2022 depuis Vandenberg Space Force Base

Loading…

Prochains Passages (prochaines 24 heures)

TLE

FraisSource: CelesTrak SupGP

Époque: Sep 14, 2026, 20:45 UTC

1 53692C 22105AW  26257.86506944 -.00022034  00000+0 -72180-3 0  2579
2 53692  97.5937 148.2559 0002159  87.8330 264.3252 15.31724846    13

Suivez STARLINK-4572 en temps réel avec AllMySat

Download on the App Store